Regional Weather Roundup
Issued by NWS

Home | Current Version | Previous Version | Text Only | Print | Product List | Glossary On
Versions: 1 2 3 4 5 6 7 8 9 10 11 12 13 14 15 16 17 18 19 20 21 22 23 24 25 26 27 28 29 30 31 32 33 34 35 36 37 38 39 40 41 42 43 44 45 46 47 48 49 50
000
ASUS43 KLOT 312200
RWRIL

ILLINOIS REGIONAL WEATHER ROUNDUP
NATIONAL WEATHER SERVICE CHICAGO/ROMEOVILLE IL
500 PM CDT THU JUL 31 2014

NOTE: "FAIR" INDICATES FEW OR NO CLOUDS BELOW 12,000 FEET WITH NO
SIGNIFICANT WEATHER AND/OR OBSTRUCTIONS TO VISIBILITY.

* THESE STATIONS ARE NOT UNDER NWS QUALITY CONTROL. THEY ALSO MAY NOT
  REPORT WEATHER SUCH AS PRECIPITATION OR FOG.

ILZ001-002-007-009-015-016-024-312300-
NORTHWEST ILLINOIS

CITY           SKY/WX    TMP DP  RH WIND       PRES   REMARKS
MOLINE         MOSUNNY   83  59  44 NW8       30.04S HX  83
STERLING*      MOSUNNY   82  63  51 NW13      30.04F HX  83
$$

ILZ003-004-008-010-011-017-018-312300-
NORTH CENTRAL ILLINOIS

CITY           SKY/WX    TMP DP  RH WIND       PRES   REMARKS
ROCKFORD       MOSUNNY   82  57  42 W13       30.04F HX  82
$$

ILZ005-006-012>014-019>023-312300-
NORTHEAST ILLINOIS

CITY           SKY/WX    TMP DP  RH WIND       PRES   REMARKS
CHICAGO-OHARE  MOSUNNY   83  54  36 W14       30.01F HX  82
CHICAGO-MIDWAY MOSUNNY   84  57  39 W14G21    30.01F HX  83
AURORA         SUNNY     80  59  48 W9        30.03F HX  81
WAUKEGAN       MOSUNNY   81  56  42 W10G18    30.00S HX  81
DUPAGE AIRPORT MOSUNNY   81  57  43 W13G20    30.02F HX  81
WHEELING       MOSUNNY   83  54  36 W16G23    30.02F HX  82
NORTHERLY ISL    N/A     81  53  37 W6          N/A  HX  80
$$

LMZ740>746-312300-
SOUTHERN LAKE MICHIGAN

STATION/POSITION SKY/WX   TEMP    WIND        PRES    VSBY  WAVE
                          AIR SEA DIR/SP/G                  HT/PER
                          (F)     (DEG/KT/KT) (MB)    (MI)  (FT/S)
SOUTHERN BUOY              66 64  150/  8/ 10 1016.2F         1
WAUKEGAN HARBOR            80     280/ 11/ 19   N/A
HARRISON CRIB              79     270/ 13/ 20   N/A
BURNHAM HARBOR             81     280/  9/ 13   N/A
CALUMET HARBOR             81     230/  7/ 10 1015.1F
MICHIGAN CITY              76     240/  6/  7   N/A
MICHIGAN CITY 6N           74 72  250/  4/  6   N/A           1
ST. JOSEPH                 72 69  150/  2/  4   N/A           1
$$

ILZ025>027-034>036-040-047-049-050-058-095>099-312300-
WEST-CENTRAL ILLINOIS

CITY           SKY/WX    TMP DP  RH WIND       PRES   REMARKS
QUINCY         SUNNY     81  57  43 CALM      30.06F HX  81
MACOMB*        SUNNY     79  61  54 W6        30.08F HX  80
$$

ILZ028>032-037-038-041>044-048-051>054-059>061-312300-
CENTRAL ILLINOIS

CITY           SKY/WX    TMP DP  RH WIND       PRES   REMARKS
DECATUR        PTSUNNY   82  59  45 CALM      30.07F HX  82
PEORIA         SUNNY     83  58  42 W7        30.06S HX  83
SPRINGFIELD    PTSUNNY   84  61  45 N5        30.06F HX  84
TAYLORVILLE    NOT AVBL
$$

ILZ033-039-045-046-055>057-062-063-312300-
EAST-CENTRAL ILLINOIS

CITY           SKY/WX    TMP DP  RH WIND       PRES   REMARKS
CHAMPAIGN      SUNNY     80  61  52 CALM      30.07F HX  81
MATTOON        SUNNY     81  59  47 N6        30.06F HX  81
$$

ILZ079-100>102-312300-
SOUTHWEST ILLINOIS

CITY           SKY/WX    TMP DP  RH WIND       PRES   REMARKS
ALTON          MOSUNNY   81  59  47 CALM      30.06S HX  81
CAHOKIA*       PTSUNNY   83  59  44 E3        30.04F HX  83
$$

ILZ064>066-069>071-074>076-080>082-084>086-088>090-092>094-312300-
SOUTH-CENTRAL ILLINOIS

CITY           SKY/WX    TMP DP  RH WIND       PRES   REMARKS
CARBONDALE     CLOUDY    80  63  55 SE8       30.06S HX  81
MARION         PTSUNNY   82  63  51 SW6       30.07F HX  83
MT. VERNON     PTSUNNY   84  57  39 S6        30.07S HX  83
$$

ILZ067-068-072-073-078-083-087-091-312300-
SOUTHEAST ILLINOIS

CITY           SKY/WX    TMP DP  RH WIND       PRES   REMARKS
LAWRENCEVILLE  SUNNY     82  62  50 VRB3      30.06F HX  83
CARMI*         MOSUNNY   81  66  61 S3        30.06S HX  83
$$

ABBREVIATIONS USED IN REMARKS
   TC - TEMPERATURE IN CELSIUS
  WCI - WIND CHILL INDEX
   HX - HEAT INDEX
  VSB - VISIBILITY
$$



USA.gov is the U.S. government's official web portal to all federal, state and local government web resources and services.